Wind_Speed
17 18 19 19 17 16 18 21 22 22 25 28 31 32 32 32 31 33 37 38 40 41 37 37 37 36 34 36 36 37 37 35 32 26 24 24 25 26 28 31 36 43 43
21 23 23 23 21 21 22 24 24 24 27 31 35 37 37 37 36 37 39 40 42 43 41 40 40 39 37 38 40 40 42 39 35 31 25 23 24 25 26 28 30 31 36
26 27 27 26 25 24 26 27 28 28 29 34 37 39 40 40 39 40 42 43 44 44 43 41 41 41 39 40 42 43 44 43 38 33 27 24 22 23 24 26 29 30 31
31 30 29 29 29 28 29 31 31 32 33 37 40 42 43 44 42 41 44 46 47 46 45 43 43 44 41 43 45 46 46 45 40 35 30 26 23 22 22 24 27 30 32
34 32 32 31 31 31 32 32 34 35 37 40 43 43 46 46 46 45 47 48 49 48 47 45 45 46 44 45 47 48 48 47 41 35 33 29 26 24 22 22 25 27 31
36 36 32 31 31 32 33 35 37 38 41 43 45 46 48 48 49 49 50 50 51 50 49 48 47 48 47 46 48 49 50 48 43 37 35 32 29 26 25 23 23 25 28
28 28 30 31 32 33 35 36 39 41 44 46 48 49 51 52 52 52 52 53 53 52 51 50 50 51 49 47 47 47 50 49 43 41 36 33 31 28 27 27 25 24 26
28 30 31 32 34 36 37 40 42 45 47 49 50 53 55 54 54 55 55 53 55 53 53 53 53 52 51 48 46 46 48 47 42 42 35 35 33 31 28 28 28 27 26
33 34 35 35 37 39 41 44 46 48 50 52 53 57 58 59 56 57 57 57 57 56 56 56 56 55 53 48 47 45 45 45 42 42 34 37 36 33 32 30 30 30 31
41 39 41 40 42 43 44 46 48 50 51 53 57 60 60 60 60 59 60 61 60 59 59 59 59 57 52 48 47 47 48 44 40 39 39 38 40 37 35 35 35 34 34
46 46 44 45 44 45 47 49 51 53 54 58 60 62 61 62 63 64 64 63 61 61 62 61 60 57 53 51 52 50 48 43 41 41 44 44 44 42 40 39 38 38 39
51 50 49 50 51 49 52 53 54 57 59 61 62 65 65 66 66 66 65 64 65 65 63 62 59 57 56 57 54 51 47 45 42 47 49 44 48 47 47 43 42 42 42
54 53 54 54 57 56 58 59 61 63 64 66 67 67 68 68 67 67 68 67 68 65 65 63 63 63 60 56 57 53 50 49 49 53 49 50 49 51 53 52 46 44 45
57 58 57 59 61 62 63 65 66 68 68 69 70 70 69 69 70 68 67 69 67 68 69 68 69 65 61 59 56 54 54 54 57 57 54 56 58 56 57 55 49 47 48
64 64 64 64 66 67 68 68 70 72 71 72 72 71 71 68 65 65 68 73 72 71 73 74 68 67 63 59 60 59 59 60 58 57 61 64 61 62 57 54 51 50 50
72 70 68 69 71 73 72 72 73 72 72 71 71 67 61 63 67 70 74 75 76 78 76 73 72 67 64 65 63 59 59 63 65 67 68 67 67 66 60 57 54 53 53
74 75 72 71 74 76 71 68 67 67 68 68 63 66 69 70 74 81 80 83 82 80 75 72 71 70 69 69 69 74 72 73 71 73 72 71 69 66 64 59 57 56 54
73 75 74 72 75 69 69 65 63 62 67 69 71 72 75 84 85 84 88 83 78 77 74 75 75 76 75 75 77 78 79 79 78 77 76 73 70 67 65 63 58 56 58
56 62 55 51 58 60 62 66 67 69 73 73 77 85 88 87 89 87 82 82 81 81 80 80 82 83 83 81 82 85 83 83 81 78 75 74 72 68 64 62 62 60 60
60 56 61 62 66 67 69 72 79 79 80 84 89 92 93 91 87 84 86 87 86 85 86 86 87 87 87 87 91 90 89 85 82 80 78 73 70 68 66 64 63 64 63
61 67 68 73 76 74 75 78 83 87 89 90 88 88 88 87 87 89 91 91 91 91 93 94 92 92 94 94 92 88 89 87 85 81 77 74 73 70 68 67 66 66 65
74 76 79 79 80 81 82 84 84 84 87 88 87 89 91 91 94 96 97 97 96 98 100 100 99 98 96 96 93 90 88 89 84 82 80 79 76 73 71 70 69 68 68
69 71 77 83 85 86 84 85 87 88 89 90 91 94 96 97 99 101 102 104 105 104 105 103 101 99 98 98 97 94 88 85 86 87 84 81 79 78 76 74 73 73 73
75 76 81 82 83 86 89 91 91 91 93 95 99 101 102 104 108 109 108 108 109 107 106 105 104 104 102 101 101 98 94 90 90 85 88 88 84 81 80 79 79 78 78
74 75 81 82 85 88 91 95 97 98 100 103 104 104 106 108 108 109 110 109 109 111 111 111 110 109 108 106 105 103 101 98 94 90 84 92 89 88 86 84 83 83 83
86 89 93 94 95 96 99 102 104 106 107 106 105 105 106 107 109 110 111 112 113 114 114 115 115 113 113 111 110 108 105 103 102 98 92 89 92 95 92 92 92 92 91
Wind_Direction
262 265 269 265 267 277 287 294 293 295 303 312 318 321 321 321 321 323 325 325 325 328 326 326 324 324 325 330 328 333 332 326 321 310 299 293 284 276 268 262 255 248 250
264 266 262 263 265 275 283 290 293 294 302 309 315 318 320 321 319 322 322 323 323 326 326 326 326 325 324 327 330 331 333 330 323 321 304 294 284 279 273 264 259 255 251
263 261 260 262 264 271 280 287 292 294 300 307 312 315 319 319 318 318 320 321 321 322 324 323 325 326 323 326 328 330 332 332 327 325 313 298 287 279 275 268 257 255 253
263 260 261 263 265 271 279 284 289 292 296 303 308 312 316 316 315 316 318 319 320 319 321 320 324 327 324 325 325 327 330 332 326 324 319 308 291 278 274 269 261 255 251
262 259 259 262 267 272 277 281 285 289 294 299 304 308 312 314 314 314 316 317 319 317 319 319 321 325 323 322 324 325 327 329 326 324 317 312 299 282 274 269 265 261 254
264 257 258 261 263 269 275 279 284 288 292 296 301 304 309 311 312 313 313 314 316 316 316 318 319 322 322 321 321 322 325 326 324 321 315 312 303 290 279 271 264 262 258
254 258 259 262 264 268 273 279 283 287 291 296 300 302 305 307 310 310 311 312 313 314 315 316 318 320 320 319 319 319 322 322 321 317 316 310 303 295 285 278 271 263 259
256 257 261 264 267 270 275 279 282 287 291 295 297 299 303 305 308 308 309 310 310 312 314 315 316 317 318 316 316 315 316 317 316 312 317 312 305 295 289 281 276 270 263
263 266 267 268 271 275 277 279 284 287 289 292 295 298 302 304 305 305 306 308 309 310 312 312 313 314 316 313 314 311 311 313 310 309 312 314 314 301 291 285 279 273 265
266 264 267 269 272 275 279 282 283 284 288 291 294 297 300 302 302 303 305 306 306 308 309 310 311 312 312 309 310 309 309 307 304 308 310 313 316 309 299 291 284 276 270
268 270 270 271 275 279 281 283 285 286 288 291 293 296 299 300 302 301 304 304 305 306 308 307 309 309 309 308 308 307 305 303 303 302 308 308 307 311 305 297 288 279 270
272 275 277 278 278 279 282 283 285 286 288 290 294 297 299 300 300 301 301 302 303 305 306 306 307 308 306 305 304 303 300 299 300 299 303 303 307 304 307 300 293 281 270
270 272 274 276 279 279 279 281 285 287 289 292 295 296 297 297 299 298 300 301 302 304 304 305 306 305 304 300 301 299 299 298 299 299 292 301 305 301 302 303 293 283 271
267 270 273 277 278 281 282 284 287 289 291 293 294 295 295 297 296 298 298 300 301 302 303 303 304 302 301 298 299 299 299 298 297 294 290 297 301 297 297 299 291 283 273
269 270 273 275 279 280 281 284 287 289 291 291 291 292 293 294 295 294 297 299 300 300 300 301 299 299 299 299 299 297 295 294 292 292 292 295 298 297 295 292 285 282 271
272 273 274 276 279 281 284 285 287 289 289 290 289 293 291 289 289 293 296 296 296 297 297 296 297 298 299 298 295 293 292 293 293 294 297 295 295 293 290 287 283 276 268
276 275 275 277 278 279 284 285 285 287 287 289 290 286 286 287 289 294 293 295 295 294 295 296 296 296 296 294 290 292 293 295 295 295 294 293 291 290 288 283 279 272 265
277 280 279 281 280 280 282 284 286 290 289 283 284 284 287 290 291 292 294 294 294 294 294 294 293 292 293 295 294 293 291 292 293 292 291 290 287 285 284 282 277 269 264
271 274 275 276 277 278 277 275 275 281 283 281 283 287 288 291 292 293 294 294 294 294 292 291 291 291 291 291 295 295 294 292 291 289 287 287 286 284 280 276 273 268 262
268 272 271 277 279 280 280 281 283 283 281 286 288 291 292 292 292 293 294 294 293 292 291 290 289 289 291 293 292 292 291 290 289 287 287 285 283 281 277 273 270 267 264
262 269 272 278 279 278 279 280 285 288 289 289 289 289 290 291 291 292 293 292 290 289 289 291 291 291 291 291 291 291 290 288 287 287 285 283 281 278 276 271 268 265 262
267 274 276 276 279 281 284 285 286 287 287 288 290 290 290 289 290 290 289 287 288 289 290 291 291 291 290 290 290 288 287 287 286 285 284 282 280 277 273 270 267 264 261
277 277 278 280 283 286 288 289 289 290 289 288 288 286 284 285 285 285 286 289 290 289 289 290 289 288 289 289 289 288 286 285 285 284 282 280 278 276 273 269 266 264 262
271 274 281 283 284 285 286 286 286 283 284 284 284 285 286 287 288 288 288 287 287 287 286 287 287 287 287 288 288 288 286 284 282 281 281 279 276 273 271 269 267 264 260
273 277 281 280 280 278 279 282 282 281 282 285 286 285 285 286 287 288 289 289 289 289 289 289 288 288 288 287 287 287 286 284 281 279 275 277 276 273 271 268 265 263 262
276 277 278 279 279 281 282 284 285 286 287 287 287 287 287 286 286 287 287 287 287 287 287 287 287 287 287 287 286 285 283 282 281 278 274 270 271 272 270 268 265 263 261
Height
10969 10969 10969 10969 10968 10968 10967 10966 10965 10965 10964 10963 10962 10960 10958 10956 10954 10951 10948 10945 10943 10940 10937 10933 10929 10926 10923 10918 10914 10910 10906 10903 10898 10895 10892 10889 10887 10885 10885 10884 10885 10888 10889
10965 10965 10965 10965 10964 10964 10963 10962 10961 10961 10960 10958 10957 10955 10952 10950 10948 10946 10943 10940 10937 10935 10932 10929 10924 10920 10917 10913 10909 10905 10901 10897 10893 10890 10887 10884 10882 10880 10879 10879 10879 10878 10880
10961 10961 10960 10960 10960 10960 10959 10958 10957 10956 10955 10953 10951 10949 10947 10944 10942 10940 10937 10935 10932 10929 10927 10923 10919 10915 10911 10907 10904 10899 10896 10891 10887 10884 10881 10879 10877 10875 10874 10873 10873 10874 10874
10955 10956 10956 10956 10955 10955 10954 10954 10953 10951 10950 10948 10946 10943 10941 10939 10936 10934 10931 10928 10926 10922 10920 10917 10913 10909 10905 10902 10897 10894 10890 10887 10881 10877 10875 10872 10871 10870 10868 10867 10867 10867 10868
10951 10950 10950 10951 10951 10950 10949 10948 10947 10946 10944 10942 10940 10937 10935 10932 10930 10927 10924 10922 10919 10916 10913 10910 10907 10903 10900 10896 10891 10887 10884 10880 10876 10873 10869 10867 10864 10863 10863 10861 10861 10860 10860
10944 10945 10945 10944 10944 10944 10944 10942 10941 10939 10938 10936 10934 10931 10929 10926 10923 10920 10917 10915 10912 10909 10906 10903 10900 10897 10893 10889 10885 10880 10876 10873 10870 10868 10864 10860 10858 10857 10856 10856 10855 10854 10853
10940 10939 10938 10938 10938 10938 10937 10936 10934 10932 10930 10928 10927 10924 10922 10919 10916 10913 10910 10908 10905 10901 10898 10895 10892 10889 10886 10882 10879 10875 10870 10866 10863 10860 10858 10855 10852 10850 10849 10848 10848 10848 10848
10934 10933 10932 10932 10932 10932 10931 10929 10927 10925 10922 10920 10919 10916 10914 10911 10909 10905 10902 10900 10897 10893 10890 10886 10884 10881 10878 10875 10871 10868 10864 10860 10857 10852 10852 10848 10846 10843 10842 10841 10840 10841 10841
10927 10926 10926 10927 10926 10925 10923 10921 10919 10917 10915 10912 10910 10907 10905 10902 10900 10897 10894 10891 10887 10884 10881 10877 10875 10872 10869 10866 10864 10859 10856 10852 10849 10844 10845 10841 10840 10837 10836 10834 10832 10832 10833
10917 10920 10919 10920 10919 10917 10915 10913 10911 10909 10907 10904 10900 10897 10896 10892 10890 10887 10884 10882 10878 10875 10872 10868 10865 10862 10860 10856 10855 10851 10848 10845 10841 10838 10837 10835 10833 10830 10829 10827 10826 10824 10823
10909 10909 10911 10910 10909 10909 10906 10903 10901 10900 10898 10895 10890 10887 10885 10883 10879 10877 10875 10870 10868 10865 10863 10858 10855 10851 10849 10846 10844 10841 10838 10837 10833 10829 10827 10826 10825 10823 10820 10819 10817 10816 10815
10899 10901 10900 10898 10898 10901 10896 10894 10892 10890 10889 10885 10882 10877 10873 10870 10868 10865 10862 10860 10857 10854 10851 10848 10845 10841 10837 10834 10832 10830 10828 10826 10825 10819 10818 10817 10815 10813 10811 10810 10808 10806 10805
10893 10893 10891 10890 10886 10891 10887 10885 10882 10879 10877 10873 10871 10866 10863 10859 10855 10853 10850 10847 10845 10842 10839 10836 10833 10829 10826 10822 10819 10817 10816 10814 10814 10809 10806 10807 10806 10803 10800 10799 10797 10796 10794
10884 10883 10883 10880 10878 10877 10875 10874 10871 10866 10866 10862 10858 10855 10850 10846 10842 10839 10836 10834 10831 10828 10826 10823 10820 10816 10813 10810 10807 10805 10803 10801 10800 10799 10794 10794 10794 10792 10790 10788 10786 10784 10783
10871 10874 10874 10871 10867 10864 10863 10863 10859 10855 10852 10851 10847 10843 10839 10834 10829 10826 10823 10820 10817 10815 10812 10809 10805 10803 10800 10797 10795 10792 10790 10788 10786 10785 10782 10778 10779 10780 10777 10775 10773 10772 10770
10856 10860 10863 10861 10856 10850 10850 10849 10845 10842 10839 10836 10832 10829 10825 10821 10817 10815 10811 10808 10805 10802 10798 10794 10791 10787 10785 10782 10780 10778 10776 10775 10773 10770 10767 10763 10761 10763 10762 10760 10758 10758 10757
10841 10842 10849 10850 10841 10836 10838 10835 10833 10828 10825 10821 10817 10813 10810 10806 10803 10799 10795 10792 10789 10785 10781 10778 10774 10771 10769 10767 10765 10762 10759 10757 10755 10754 10752 10748 10745 10742 10743 10744 10742 10742 10742
10831 10825 10831 10832 10824 10822 10823 10819 10817 10814 10809 10805 10801 10797 10793 10789 10785 10781 10778 10774 10770 10766 10763 10760 10757 10755 10753 10750 10747 10746 10743 10740 10738 10736 10733 10731 10728 10725 10723 10722 10724 10725 10724
10817 10812 10815 10815 10810 10807 10805 10802 10800 10796 10792 10788 10783 10780 10775 10769 10765 10762 10757 10753 10750 10747 10744 10741 10739 10735 10732 10731 10728 10725 10722 10719 10718 10717 10714 10712 10710 10708 10706 10705 10704 10705 10706
10807 10798 10799 10799 10795 10793 10793 10788 10785 10781 10775 10771 10765 10760 10753 10750 10745 10741 10737 10733 10729 10726 10724 10722 10718 10714 10711 10710 10707 10705 10699 10697 10696 10695 10692 10691 10689 10689 10688 10686 10685 10685 10687
10795 10787 10786 10786 10782 10779 10777 10771 10766 10761 10756 10752 10746 10740 10733 10730 10726 10721 10716 10712 10709 10705 10701 10698 10695 10692 10686 10688 10687 10684 10676 10671 10672 10671 10669 10668 10667 10667 10666 10665 10665 10666 10667
10781 10774 10768 10770 10766 10762 10760 10753 10748 10743 10737 10733 10728 10720 10715 10709 10704 10698 10694 10689 10686 10683 10678 10674 10673 10670 10664 10659 10661 10662 10657 10646 10649 10644 10645 10643 10642 10644 10644 10643 10644 10645 10646
10765 10761 10754 10752 10750 10742 10738 10733 10729 10723 10717 10712 10708 10701 10695 10691 10685 10679 10673 10667 10662 10657 10652 10648 10645 10642 10641 10633 10632 10634 10635 10630 10623 10617 10618 10618 10619 10618 10618 10620 10622 10623 10623
10749 10747 10745 10737 10732 10726 10720 10715 10709 10704 10698 10693 10687 10680 10673 10664 10656 10651 10647 10642 10637 10631 10626 10622 10619 10615 10613 10609 10602 10599 10603 10606 10603 10603 10586 10587 10591 10593 10593 10593 10595 10595 10597
10732 10728 10728 10723 10716 10709 10701 10696 10689 10682 10676 10670 10664 10659 10651 10642 10633 10625 10619 10611 10605 10599 10594 10590 10587 10583 10579 10579 10573 10568 10566 10568 10571 10576 10581 10555 10559 10560 10563 10565 10567 10568 10569
10717 10712 10705 10701 10697 10691 10683 10675 10667 10660 10652 10644 10636 10631 10624 10615 10608 10600 10595 10589 10582 10574 10567 10561 10557 10552 10547 10544 10541 10538 10536 10533 10531 10535 10544 10547 10535 10525 10531 10533 10534 10535 10540